Location: Huntsville
(41.2590°N, 111.7678°W)
Time: 19:28:05
(UTC+00:00)

Explorer 7 - Pass Details

Date: 18 June 2021
Orbit: 484 x 676 km, 50.3° (Epoch: 30 July)

Event Time Altitude Azimuth Distance (km) Brightness Sun altitude
Rises 07:47:33 0° 288° (WNW) 3,002 10.7 -25.2°
Reaches altitude 10° 07:50:16 10° 300° (WNW) 2,069 10.0 -25.1°
Maximum altitude 07:54:18 26° 358° (N) 1,248 9.3 -25.0°
Drops below altitude 10° 07:58:11 10° 56° (NE) 1,984 10.2 -25.0°
Sets 08:00:44 0° 69° (ENE) 2,852 10.9 -24.9°
